Location: *
(50.2903°S, 172.5375°W)
Time: 11:15:41
(UTC+00:00)

CZ-2C R/B - Pass Details

Date: 17 November 2019
Orbit: 503 x 567 km, 97.7° (Epoch: 15 December)

Event Time Altitude Azimuth Distance (km) Brightness Sun altitude
Exits shadow 14:32:03 - 335° (NNW) 1,970 5.1 -8.3°
Reaches altitude 10° 14:32:18 10° 333° (NNW) 1,884 4.9 -8.2°
Maximum altitude 14:35:49 27° 274° (W) 1,126 4.0 -7.8°
Drops below altitude 10° 14:39:22 10° 215° (SW) 1,903 5.7 -7.4°
Sets 14:41:48 0° 203° (SSW) 2,804 6.7 -7.1°
